Houston Hull, TX

8:29 AM CDT on May 30, 2017 (GMT -0500)
Sugar Land Municipal-Hull

Weather History for KSGR - January, 2013

Change the Weather History Date:

Wednesday, January 16, 2013

  Actual Average Record
Temperature  
Mean Temperature 40 °F -  
Max Temperature 50 °F 62 °F 81 °F (1949)
Min Temperature 30 °F 40 °F 23 °F (1972)
Degree Days  
Heating Degree Days 25    
Moisture  
Dew Point 26 °F    
Average Humidity 58    
Maximum Humidity 89    
Minimum Humidity 29    
Precipitation  
Precipitation 0.00 in - - ()
Sea Level Pressure  
Sea Level Pressure 30.27 in    
Wind  
Wind Speed 11 mph (NNW)    
Max Wind Speed 15 mph    
Max Gust Speed 24 mph    
Visibility 10 miles    
Events      
Averages and records for this station are not official NWS values.
T = Trace of Precipitation, MM = Missing Value Source: NWS Daily Summary

Daily Weather History Graph

Daily Weather History Graph

Search for Another Location

Airport or City:

Trip Planner

Search our weather history database for the weather conditions in past years. The results will help you decide how hot, cold, wet, or windy it might be!

Date:

Astronomy

Jan. 16, 2013 Rise Set
Actual Time 7:18 AM CST 5:47 PM CST
Civil Twilight 6:52 AM CST 6:12 PM CST
Nautical Twilight 6:23 AM CST 6:41 PM CST
Astronomical Twilight 5:54 AM CST 7:10 PM CST
Moon 10:23 AM CST (1/16) 11:08 PM CST (1/16)
Length of Visible Light 11h 20m
Length of Day
10h 28m
Waxing Crescent, 28% of the Moon is Illuminated
Jan 16
Waxing Crescent
Jan 18
First Quarter
Jan 26
Full
Feb 3
Last Quarter
Feb 10
New

Hourly Weather History & Observations

Time (CST) Temp. Windchill Dew Point Humidity Pressure Visibility Wind Dir Wind Speed Gust Speed Precip Events Conditions
12:53 AM 37.9 °F 29.2 °F 33.1 °F 83% 30.19 in 10.0 mi North 15.0 mph 23.0 mph N/A   Overcast
2:53 AM 37.9 °F 30.9 °F 32.0 °F 79% 30.23 in 10.0 mi NNW 10.4 mph - N/A   Overcast
3:07 AM 39.2 °F 32.0 °F 32.0 °F 75% 30.20 in 10.0 mi NNW 11.5 mph - N/A   Overcast
3:53 AM 39.0 °F 32.3 °F 32.0 °F 76% 30.24 in 10.0 mi NNW 10.4 mph - N/A   Overcast
4:53 AM 39.0 °F 32.3 °F 30.9 °F 73% 30.23 in 10.0 mi NNW 10.4 mph - N/A   Overcast
5:53 AM 39.0 °F 32.8 °F 30.9 °F 73% 30.25 in 10.0 mi NW 9.2 mph - N/A   Overcast
6:53 AM 37.9 °F 30.9 °F 30.9 °F 76% 30.28 in 10.0 mi NW 10.4 mph - N/A   Overcast
8:53 AM 39.0 °F 31.4 °F 28.0 °F 65% 30.33 in 10.0 mi NNW 12.7 mph 19.6 mph N/A   Clear
9:53 AM 42.1 °F 35.7 °F 27.0 °F 55% 30.33 in 10.0 mi NW 11.5 mph - N/A   Clear
10:53 AM 46.0 °F 39.9 °F 23.0 °F 40% 30.32 in 10.0 mi NNW 13.8 mph 20.7 mph N/A   Clear
11:53 AM 48.9 °F - 21.9 °F 35% 30.29 in 10.0 mi North 11.5 mph - N/A   Clear
12:53 PM 50.0 °F - 21.0 °F 32% 30.26 in 10.0 mi WNW 12.7 mph 21.9 mph N/A   Clear
1:53 PM 50.0 °F - 19.0 °F 29% 30.24 in 10.0 mi NW 12.7 mph 24.2 mph N/A   Clear
2:53 PM 50.0 °F - 19.0 °F 29% 30.22 in 10.0 mi WNW 11.5 mph 20.7 mph N/A   Clear
3:53 PM 50.0 °F - 19.9 °F 31% 30.24 in 10.0 mi NW 11.5 mph 20.7 mph N/A   Clear
4:53 PM 48.9 °F - 18.0 °F 29% 30.25 in 10.0 mi NW 11.5 mph 18.4 mph N/A   Clear
5:53 PM 45.0 °F 41.8 °F 21.9 °F 40% 30.27 in 10.0 mi NNW 5.8 mph - N/A   Clear
6:53 PM 44.1 °F 42.5 °F 23.0 °F 43% 30.29 in 10.0 mi NNW 3.5 mph - N/A   Clear
9:53 PM 33.1 °F - 26.1 °F 75% 30.30 in 10.0 mi Calm Calm - N/A   Clear
10:53 PM 30.9 °F - 28.0 °F 89% 30.30 in 10.0 mi Calm Calm - N/A   Clear
11:53 PM 30.9 °F - 28.0 °F 89% 30.31 in 10.0 mi Calm Calm - N/A   Clear